TOMORROW-S7

Satellite information

Favourite Embed

Satellite Type and Status

PAYLOADIN ORBIT

Key statistics

Satellite TOMORROW-S7 at a glance.

Uptime

198

Days in orbit

Revolutions

≈ 15.0

Per day

Orbit

LEO

Low Earth Orbit

Inclination

45.4

Latest

Satellite identification and parameters

Extended collection of information and parameters for TOMORROW-S7.

Object identification

Identified? True

Debris? False

Object name: TOMORROW-S7

International designator: 2025-081B

Object number (NORAD): 63631

Object ID (CCSDS): 63631

Country: UNITED STATES OF AMERICA (US)

Current information (Y/N): Y

RCS size: MEDIUM

Orbital parameters

Period: 96.097 minutes

Inclination: 45.3929 deg

SMA: 6949.708 km

Apoapsis: 573.081 km

Periapsis: 570.066 km

RAAN: 55.1799 deg

Eccentricy: 0.00021693

Argument of periapsis: 192.7594 deg

Mean anomaly: 167.323 deg

Mean motion: 14.98486749 rev/day

Mean motion (dot): 0.00002537 rev/day2

B* drag term: 0.00022773108 1/REarth

Two-line elements (TLE)

Creation date: Nov. 6, 2025, 3:23 a.m.

Reference frame: TEME

Reference center: EARTH

Epoch: Nov. 5, 2025, 5:54 p.m. UTC

TLE line 0: 0 TOMORROW-S7

TLE line 1: 1 63631U 25081B 25309.74604176 .00002537 00000-0 22773-3 0 9990

TLE line 2: 2 63631 45.3929 55.1799 0002169 192.7594 167.3230 14.98486749 29647

Live tracking on map

Real-time ground track for satellite TOMORROW-S7.

In-orbit conjunctions

There are no conjunctions computed for TOMORROW-S7, at the moment. Check back to stay up to date, as we update our databases every day.

Go to all conjunctions

Associated space launch

Dedicated rideshare flight to a mid-inclination orbit with dozens of small microsatellites and nanosatellites for commercial and government customers.

TOMORROW-S7 was lifted into orbit during the mission ‘Falcon 9 Block 5 | Bandwagon 3 (Dedicated Mid-Inclination Rideshare)’, on board a Falcon 9 space rocket.

The launch took place on April 22, 2025, 12:48 a.m. from Space Launch Complex 40.

For more information about the launch, click the button.

Launch to space Falcon 9 Block 5 | Bandwagon 3 (Dedicated Mid-Inclination Rideshare)
Falcon 9 Block 5 | Bandwagon 3 (Dedicated Mid-Inclination Rideshare)

Agency: SpaceX

Status: Launch Successful

Launch date: April 22, 2025, 12:48 a.m. UTC

Rocket: Falcon 9

Launch pad: Space Launch Complex 40

Location: Cape Canaveral SFS, FL, USA

...

Latest news about this satellite

News about space launch
SpaceX Launches Sparse Bandwagon-3 Mission with Just Three Payloads

SpaceX Launches Sparse Bandwagon-3 Mission with Just Three Payloads

News about space launch
ATMOS PHOENIX 1 Reaches Orbit; Conducts Critical Inflatable ReEntry Test

ATMOS PHOENIX 1 Reaches Orbit; Conducts Critical Inflatable ReEntry Test

News about space launch
Atmos Space Cargo declares first test flight a success despite reentry uncertainty

German startup Atmos Space Cargo says it considers the first flight of its reentry vehicle a success despite limited data on how it performed during reentry. The post Atmos Space Cargo declares first test flight a success despite reentry uncertainty appe...


Newsletter sign-up

Weekly statistics, charts and insights to help you stay on top of the space industry.